Location: Chicoutimi
(48.4330°N, 71.0670°W)
Time: 23:03:06
(UTC-05:00)

ISS - Visible Passes

Search period start: 25 November 2014 00:00
Search period end: 05 December 2014 00:00
Orbit: 407 x 417 km, 51.6° (Epoch: 25 November)

Date Brightness Start Highest point End Pass type
(mag) Time Alt. Az. Time Alt. Az. Time Alt. Az.
25 Nov -3.0 05:17:15 47° WSW 05:17:38 51° SSW 05:20:51 10° SE visible
26 Nov -1.2 04:29:40 25° ESE 04:29:40 25° ESE 04:31:13 10° ESE visible
26 Nov -1.2 06:02:29 12° WSW 06:04:08 16° SW 06:06:13 10° S visible
27 Nov -1.8 05:14:55 24° SSW 05:14:55 24° SSW 05:17:16 10° SSE visible
28 Nov -0.4 04:27:22 13° SSE 04:27:22 13° SSE 04:27:52 10° SE visible
